Location: Christchurch
(43.5330°S, 172.6330°E)
Time: 22:52:06
(UTC+13:00)

Cosmos 1869 Rocket - Pass Details

Date: 24 January 2019
Orbit: 605 x 633 km, 82.5° (Epoch: 15 October)

Event Time Altitude Azimuth Distance (km) Brightness Sun altitude
Rises 22:27:04 0° 182° (S) 2,922 7.8 -13.0°
Reaches altitude 10° 22:29:25 10° 175° (S) 2,004 6.7 -13.4°
Maximum altitude 22:33:39 43° 103° (ESE) 876 4.1 -13.9°
Enters shadow 22:35:55 23° 44° (NE) 1,303 4.6 -14.2°
